Location: Windsor
(43.2292°N, 89.3015°W)
Time: 13:49:35
(UTC+00:00)

AO-7 - Pass Details

Date: 05 July 2022
Orbit: 1440 x 1458 km, 101.9° (Epoch: 14 August)

Event Time Altitude Azimuth Distance (km) Brightness Sun altitude
Rises 09:14:08 0° 27° (NNE) 4,561 ? -10.6°
Reaches altitude 10° 09:17:32 10° 39° (NE) 3,581 ? -10.2°
Maximum altitude 09:24:24 28° 95° (E) 2,474 ? -9.3°
Drops below altitude 10° 09:31:14 10° 150° (SSE) 3,573 ? -8.4°
Sets 09:34:34 0° 162° (SSE) 4,549 ? -7.9°
